Location: Endfield
(51.6667°N, 0.0667°W)
Time: 20:54:11
(UTC+00:00)

Cosmos 2221 - Pass Details

Date: 19 May 2024
Orbit: 581 x 604 km, 82.5° (Epoch: 14 June)

Event Time Altitude Azimuth Distance (km) Brightness Sun altitude
Exits shadow 21:22:36 - 195° (SSW) 2,622 5.4 -10.8°
Reaches altitude 10° 21:24:16 10° 197° (SSW) 1,949 4.8 -10.9°
Maximum altitude 21:28:35 72° 282° (WNW) 640 2.8 -11.3°
Drops below altitude 10° 21:32:55 10° 7° (N) 1,965 5.9 -11.7°
Sets 21:35:10 0° 10° (N) 2,873 6.7 -11.9°
